#timestamp,LO_Frequency,Hit 
1501210815.3,286047011.2,N
1501210835.1,286047013.1,N
1501210836.0,286047013.1,N
1501210855.8,286047012.5,N
1501210875.6,286047015.4,N
1501210895.5,286047014.7,N
1501210915.3,286047014.1,N
1501210935.1,286047016.9,N
1501210955.9,286047016.1,N
1501210975.7,286047016.4,N
1501210995.5,286047014.4,N
1501211015.4,286047013.3,N
1501211035.2,286047014.5,N
1501211055.0,286047016.8,N
1501211055.9,286047016.8,N
1501211075.8,286047018.7,Y
1501211095.6,286047013.4,N
1501211115.4,286047011.9,N
1501211135.3,286047012.0,N
1501211155.1,286047009.7,N
1501211156.0,286047009.7,N
1501211175.8,286047009.5,N
1501211195.6,286047008.2,N
1501211215.5,286047011.5,N
1501211235.3,286047009.6,N
1501211255.1,286047010.1,N
1501211275.9,286047007.7,N
1501211295.7,286047010.0,N
1501211315.5,286047007.8,N
1501211335.4,286047009.5,N
1501211355.2,286047009.3,N
1501211375.0,286047010.7,N
1501211375.9,286047010.7,N
1501211395.8,286047009.7,N
1501211415.6,286047015.3,N
1501211435.4,286047015.2,N
1501211455.2,286047012.8,N
1501211475.1,286047017.2,N
1501211476.0,286047017.2,N
1501211495.8,286047012.7,N
1501211515.6,286047015.1,N
1501211535.5,286047013.1,N
1501211555.3,286047013.0,N
1501211575.1,286047016.7,N
1501211595.9,286047013.3,N
1501211615.7,286047011.5,N
1501211635.5,286047011.2,N
1501211655.4,286047013.3,N
1501211675.2,286047015.2,N
1501211695.0,286047015.6,N
1501211695.9,286047015.6,N
1501211715.8,286047015.1,N
1501211735.6,286047013.4,N
1501211755.4,286047013.2,N
1501211775.2,286047015.6,N
1501211795.1,286047015.0,N
1501211796.0,286047015.0,N
1501211815.8,286047015.1,N
1501211835.6,286047015.6,N
1501211855.5,286047013.7,N
1501211875.3,286047011.4,N
1501211895.1,286047015.2,N
1501211915.9,286047012.8,N
1501211935.7,286047015.4,N
1501211955.5,286047014.8,N
1501211975.4,286047012.5,N
1501211995.2,286047012.8,N
1501212015.0,286047015.0,N
1501212015.9,286047015.0,N
1501212035.7,286047016.6,N
1501212055.6,286047018.7,Y
1501212075.4,286047010.8,N
1501212095.2,286047008.2,N
1501212115.1,286047006.3,N
1501212116.0,286047006.3,N
1501212135.8,286047010.7,N
1501212155.6,286047010.3,N
1501212175.5,286047009.8,N
1501212195.3,286047008.4,N
1501212215.1,286047010.0,N
1501212235.9,286047009.7,N
1501212255.7,286047013.0,N
1501212275.5,286047012.8,N
1501212295.4,286047011.5,N
1501212315.2,286047013.1,N
1501212335.0,286047013.9,N
1501212335.9,286047013.9,N
1501212355.8,286047012.2,N
1501212375.6,286047012.3,N
1501212395.4,286047009.3,N
1501212415.2,286047011.9,N
1501212435.1,286047012.0,N
1501212436.0,286047012.0,N
1501212455.8,286047013.2,N
1501212475.6,286047012.1,N
1501212495.5,286047013.8,N
1501212515.3,286047011.4,N
1501212535.1,286047011.7,N
1501212555.9,286047013.9,N
1501212575.7,286047011.5,N
1501212595.5,286047011.2,N
1501212615.4,286047012.4,N
1501212635.2,286047009.3,N
1501212655.0,286047012.4,N
1501212655.9,286047012.4,N
1501212675.7,286047011.8,N
1501212695.6,286047011.6,N
1501212715.4,286047011.1,N
1501212735.2,286047009.5,N
1501212755.1,286047014.0,N
1501212756.0,286047014.0,N
1501212775.8,286047013.4,N
1501212795.6,286047011.3,N
1501212815.5,286047011.2,N
1501212835.3,286047013.8,N
1501212855.1,286047013.2,N
1501212875.9,286047011.3,N
1501212895.7,286047013.9,N
1501212915.5,286047013.5,N
1501212935.3,286047011.7,N
1501212955.2,286047011.3,N
1501212975.9,286047009.7,N
1501212995.7,286047010.1,N
1501213015.6,286047009.6,N
1501213035.4,286047012.7,N
1501213055.2,286047013.2,N
1501213075.1,286047013.1,N
1501213076.0,286047013.1,N
1501213095.8,286047013.1,N
1501213115.6,286047011.2,N
1501213135.4,286047011.1,N
1501213155.3,286047011.8,N
1501213175.1,286047010.6,N
1501213195.8,286047011.1,N
1501213215.7,286047011.2,N
1501213235.5,286047013.9,N
1501213255.3,286047015.5,Y
1501213275.2,286047004.8,N
1501213295.0,286047002.9,N
1501213295.9,286047002.9,N
1501213315.7,286047007.2,N
1501213335.6,286047010.4,N
1501213355.4,286047007.1,N
1501213375.2,286047005.8,N
1501213395.1,286047005.6,N
1501213396.0,286047005.6,N
1501213415.8,286047007.6,N
1501213435.6,286047004.7,N
1501213455.5,286047007.2,N
1501213475.3,286047005.3,N
1501213495.1,286047005.3,N
1501213515.8,286047007.2,N
1501213535.7,286047011.1,N
1501213555.5,286047009.6,N
1501213575.3,286047008.3,N
1501213595.2,286047006.1,N
1501213615.9,286047006.1,N
1501213635.7,286047006.4,N
1501213655.6,286047007.1,N
1501213675.4,286047006.4,N
1501213695.2,286047006.4,N
1501213715.0,286047007.0,N
1501213716.0,286047007.0,N
1501213735.8,286047008.8,N
1501213755.6,286047009.0,N
1501213775.4,286047006.4,N
1501213795.3,286047006.6,N
1501213815.1,286047007.4,N
1501213835.8,286047007.3,N
1501213855.7,286047005.8,N
1501213875.5,286047005.0,N
1501213895.3,286047003.1,N
1501213915.2,286047007.3,N
1501213935.9,286047007.7,N
1501213955.7,286047008.3,N
1501213975.6,286047010.1,N
1501213995.4,286047009.2,N
1501214015.2,286047006.3,N
1501214035.0,286047008.6,N
1501214035.9,286047008.6,N
1501214055.8,286047007.3,N
1501214075.6,286047007.3,N
1501214095.4,286047004.8,N
1501214115.3,286047006.9,N
1501214135.1,286047007.0,N
1501214155.8,286047009.2,N
1501214175.7,286047009.2,N
1501214195.5,286047009.2,N
1501214215.3,286047008.2,N
1501214235.2,286047008.1,N
1501214255.9,286047008.7,N
1501214275.7,286047009.2,N
1501214295.5,286047006.4,N
1501214315.4,286047009.0,N
1501214335.2,286047008.9,N
1501214355.0,286047008.6,N
1501214355.9,286047008.6,N
1501214375.8,286047006.8,N
1501214395.6,286047006.3,N
